Time,TemperatureF,DewpointF,PressureIn,WindDirection,WindDirectionDegrees,WindSpeedMPH,WindSpeedGustMPH,Humidity,HourlyPrecipIn,Conditions,Clouds,dailyrainin,SoftwareType,DateUTC
2013-03-12 00:00:00,33.4,29.7,29.82,WSW,244,18.2,19.0,86,0.00,,OVC008,0.22,VWS V14.01,2013-03-12 04:00:00,
2013-03-12 00:05:00,33.4,29.7,29.82,WSW,244,15.2,19.0,86,0.00,,OVC008,0.00,VWS V14.01,2013-03-12 04:05:00,
2013-03-12 00:10:00,33.4,29.7,29.82,WSW,254,13.2,21.0,86,0.01,,OVC008,0.01,VWS V14.01,2013-03-12 04:10:00,
2013-03-12 00:15:00,33.5,29.8,29.82,WSW,254,14.2,17.0,86,0.01,,OVC008,0.01,VWS V14.01,2013-03-12 04:15:00,
2013-03-12 00:20:00,33.5,29.5,29.83,WSW,257,11.2,22.0,85,0.01,,OVC008,0.01,VWS V14.01,2013-03-12 04:20:00,
2013-03-12 00:25:00,33.6,29.6,29.82,WSW,257,16.2,20.0,85,0.01,,OVC008,0.01,VWS V14.01,2013-03-12 04:25:00,
2013-03-12 00:31:00,33.6,29.6,29.83,WSW,253,15.2,20.0,85,0.01,,OVC008,0.01,VWS V14.01,2013-03-12 04:31:00,
2013-03-12 00:36:00,33.6,29.6,29.83,WSW,257,12.2,16.0,85,0.01,,OVC008,0.01,VWS V14.01,2013-03-12 04:36:00,
2013-03-12 00:41:00,33.5,29.5,29.83,WSW,249,11.2,19.0,85,0.01,,OVC008,0.01,VWS V14.01,2013-03-12 04:41:00,
2013-03-12 00:46:00,33.5,29.2,29.83,West,259,18.2,19.0,84,0.01,,OVC008,0.01,VWS V14.01,2013-03-12 04:46:00,
2013-03-12 00:51:00,33.5,29.2,29.83,WSW,255,18.2,20.0,84,0.01,,OVC008,0.01,VWS V14.01,2013-03-12 04:51:00,
2013-03-12 00:56:00,33.5,29.2,29.84,WSW,254,19.2,20.0,84,0.01,,OVC008,0.01,VWS V14.01,2013-03-12 04:56:00,
2013-03-12 01:01:00,33.5,29.2,29.84,WSW,256,12.2,20.0,84,0.01,,-RA,0.01,VWS V14.01,2013-03-12 05:01:00,
2013-03-12 01:06:00,33.6,29.0,29.83,WSW,253,14.2,18.0,83,0.01,,-RA,0.01,VWS V14.01,2013-03-12 05:06:00,
2013-03-12 01:11:00,33.6,29.0,29.83,WSW,252,9.2,18.0,83,0.01,,-RA,0.01,VWS V14.01,2013-03-12 05:11:00,
2013-03-12 01:16:00,33.6,29.0,29.83,WSW,251,11.2,23.0,83,0.00,,-RA,0.01,VWS V14.01,2013-03-12 05:16:00,
2013-03-12 01:21:00,33.5,28.9,29.84,West,264,17.2,23.0,83,0.00,,-RA,0.01,VWS V14.01,2013-03-12 05:21:00,
2013-03-12 01:26:00,33.5,28.9,29.84,WSW,257,14.2,17.0,83,0.00,,-RA,0.01,VWS V14.01,2013-03-12 05:26:00,
2013-03-12 01:31:00,33.4,28.8,29.84,West,259,12.2,18.0,83,0.00,,-RA,0.01,VWS V14.01,2013-03-12 05:31:00,
2013-03-12 01:36:00,33.4,29.1,29.84,WSW,258,12.2,15.0,84,0.00,,-RA,0.01,VWS V14.01,2013-03-12 05:36:00,
2013-03-12 01:41:00,33.3,29.0,29.84,WSW,256,12.2,18.0,84,0.00,,-RA,0.01,VWS V14.01,2013-03-12 05:41:00,
2013-03-12 01:46:00,33.2,28.9,29.84,West,263,11.2,16.0,84,0.00,,-RA,0.01,VWS V14.01,2013-03-12 05:46:00,
2013-03-12 01:51:00,33.1,28.8,29.84,West,262,10.2,16.0,84,0.00,,-RA,0.01,VWS V14.01,2013-03-12 05:51:00,
2013-03-12 01:56:00,33.1,28.8,29.84,West,259,8.2,13.0,84,0.00,,-RA,0.01,VWS V14.01,2013-03-12 05:56:00,
2013-03-12 02:01:00,33.0,28.7,29.84,West,261,7.2,13.0,84,0.00,,OVC021,0.01,VWS V14.01,2013-03-12 06:01:00,
2013-03-12 02:06:00,33.0,28.7,29.84,WSW,256,9.2,13.0,84,0.00,,OVC021,0.01,VWS V14.01,2013-03-12 06:06:00,
2013-03-12 02:11:00,33.0,28.7,29.84,West,265,12.2,13.0,84,0.00,,OVC021,0.01,VWS V14.01,2013-03-12 06:11:00,
2013-03-12 02:16:00,33.0,28.7,29.84,West,275,11.2,16.0,84,0.00,,OVC021,0.01,VWS V14.01,2013-03-12 06:16:00,
2013-03-12 02:21:00,33.0,28.4,29.84,West,259,8.2,16.0,83,0.00,,OVC021,0.01,VWS V14.01,2013-03-12 06:21:00,
2013-03-12 02:26:00,33.0,28.4,29.84,WSW,257,11.2,15.0,83,0.00,,OVC021,0.01,VWS V14.01,2013-03-12 06:26:00,
2013-03-12 02:31:00,33.0,28.4,29.84,WSW,253,17.2,17.2,83,0.00,,OVC021,0.01,VWS V14.01,2013-03-12 06:31:00,
2013-03-12 02:37:00,33.0,28.7,29.85,West,260,6.2,19.0,84,0.00,,OVC021,0.01,VWS V14.01,2013-03-12 06:37:00,
2013-03-12 02:42:00,33.0,28.7,29.85,West,268,12.2,16.0,84,0.00,,OVC021,0.01,VWS V14.01,2013-03-12 06:42:00,
2013-03-12 02:47:00,32.9,28.3,29.85,WNW,291,11.2,24.0,83,0.00,,OVC021,0.01,VWS V14.01,2013-03-12 06:47:00,
2013-03-12 02:52:00,32.9,28.3,29.85,West,280,20.2,20.2,83,0.00,,OVC021,0.01,VWS V14.01,2013-03-12 06:52:00,
2013-03-12 02:57:00,32.9,28.0,29.85,West,273,14.2,20.0,82,0.00,,OVC021,0.01,VWS V14.01,2013-03-12 06:57:00,
2013-03-12 03:02:00,32.9,28.0,29.85,WNW,284,16.2,19.0,82,0.00,,OVC016,0.01,VWS V14.01,2013-03-12 07:02:00,
2013-03-12 03:07:00,32.9,28.0,29.85,West,272,12.2,19.0,82,0.00,,OVC016,0.01,VWS V14.01,2013-03-12 07:07:00,
2013-03-12 03:12:00,32.9,28.0,29.85,West,274,12.2,15.0,82,0.00,,OVC016,0.01,VWS V14.01,2013-03-12 07:12:00,
2013-03-12 03:17:00,32.8,27.6,29.85,West,268,10.2,19.0,81,0.00,,OVC016,0.01,VWS V14.01,2013-03-12 07:17:00,
2013-03-12 03:22:00,32.8,27.6,29.85,West,277,8.2,12.0,81,0.00,,OVC016,0.01,VWS V14.01,2013-03-12 07:22:00,
2013-03-12 03:27:00,32.8,27.9,29.85,West,263,9.2,16.0,82,0.00,,OVC016,0.01,VWS V14.01,2013-03-12 07:27:00,
2013-03-12 03:32:00,32.8,27.9,29.85,West,262,17.2,17.2,82,0.00,,OVC016,0.01,VWS V14.01,2013-03-12 07:32:00,
2013-03-12 03:37:00,32.8,27.6,29.85,WNW,282,8.2,17.0,81,0.00,,OVC016,0.01,VWS V14.01,2013-03-12 07:37:00,
2013-03-12 03:42:00,32.8,27.9,29.85,West,267,12.2,14.0,82,0.00,,OVC016,0.01,VWS V14.01,2013-03-12 07:42:00,
2013-03-12 03:47:00,32.8,27.6,29.85,West,273,11.2,14.0,81,0.00,,OVC016,0.01,VWS V14.01,2013-03-12 07:47:00,
2013-03-12 03:52:00,32.7,27.5,29.86,WNW,286,17.2,17.2,81,0.00,,OVC016,0.01,VWS V14.01,2013-03-12 07:52:00,
2013-03-12 03:57:00,32.7,27.5,29.86,West,277,12.2,16.0,81,0.00,,OVC016,0.01,VWS V14.01,2013-03-12 07:57:00,
2013-03-12 04:02:00,32.7,27.5,29.85,WNW,289,11.2,11.2,81,0.00,,OVC011,0.01,VWS V14.01,2013-03-12 08:02:00,
2013-03-12 04:07:00,32.6,27.4,29.85,West,271,15.2,19.0,81,0.00,,OVC011,0.01,VWS V14.01,2013-03-12 08:07:00,
2013-03-12 04:12:00,32.6,27.4,29.85,West,281,12.2,13.0,81,0.00,,OVC011,0.01,VWS V14.01,2013-03-12 08:12:00,
2013-03-12 04:17:00,32.5,27.3,29.86,West,276,10.2,15.0,81,0.00,,OVC011,0.01,VWS V14.01,2013-03-12 08:17:00,
2013-03-12 04:22:00,32.5,27.6,29.86,West,273,6.2,8.0,82,0.00,,OVC011,0.01,VWS V14.01,2013-03-12 08:22:00,
2013-03-12 04:27:00,32.5,27.6,29.86,West,276,13.2,16.0,82,0.00,,OVC011,0.01,VWS V14.01,2013-03-12 08:27:00,
2013-03-12 04:32:00,32.4,27.5,29.86,West,276,5.2,9.0,82,0.00,,OVC011,0.01,VWS V14.01,2013-03-12 08:32:00,
2013-03-12 04:37:00,32.4,27.8,29.86,West,263,9.2,14.0,83,0.00,,OVC011,0.01,VWS V14.01,2013-03-12 08:37:00,
2013-03-12 04:42:00,32.3,27.4,29.86,West,269,7.2,18.0,82,0.00,,OVC011,0.01,VWS V14.01,2013-03-12 08:42:00,
2013-03-12 04:47:00,32.3,27.4,29.86,West,272,12.2,21.0,82,0.00,,OVC011,0.01,VWS V14.01,2013-03-12 08:47:00,
2013-03-12 04:52:00,32.3,27.4,29.86,West,270,11.2,16.0,82,0.00,,OVC011,0.01,VWS V14.01,2013-03-12 08:52:00,
2013-03-12 04:57:00,32.3,27.4,29.86,West,276,17.2,24.0,82,0.00,,OVC011,0.01,VWS V14.01,2013-03-12 08:57:00,
2013-03-12 05:03:00,32.4,27.5,29.87,West,269,14.2,14.2,82,0.00,,OVC012,0.01,VWS V14.01,2013-03-12 09:03:00,
2013-03-12 05:08:00,32.3,27.1,29.87,WNW,283,15.2,21.0,81,0.00,,OVC012,0.01,VWS V14.01,2013-03-12 09:08:00,
2013-03-12 05:13:00,32.3,27.1,29.87,WNW,288,12.2,17.0,81,0.00,,OVC012,0.01,VWS V14.01,2013-03-12 09:13:00,
2013-03-12 05:18:00,32.2,26.7,29.87,West,281,14.2,18.0,80,0.00,,OVC012,0.01,VWS V14.01,2013-03-12 09:18:00,
2013-03-12 05:23:00,32.2,26.7,29.87,West,279,11.2,12.0,80,0.00,,OVC012,0.01,VWS V14.01,2013-03-12 09:23:00,
2013-03-12 05:28:00,32.2,26.7,29.87,West,265,12.2,16.0,80,0.00,,OVC012,0.01,VWS V14.01,2013-03-12 09:28:00,
2013-03-12 05:33:00,32.2,26.7,29.87,West,273,14.2,15.0,80,0.00,,OVC012,0.01,VWS V14.01,2013-03-12 09:33:00,
2013-03-12 05:38:00,32.2,26.7,29.88,West,277,8.2,15.0,80,0.00,,OVC012,0.01,VWS V14.01,2013-03-12 09:38:00,
2013-03-12 05:43:00,32.1,26.6,29.88,West,271,10.2,13.0,80,0.00,,OVC012,0.01,VWS V14.01,2013-03-12 09:43:00,
2013-03-12 05:48:00,32.1,26.3,29.88,West,275,11.2,14.0,79,0.00,,OVC012,0.01,VWS V14.01,2013-03-12 09:48:00,
2013-03-12 05:53:00,32.1,26.3,29.88,West,271,12.2,13.0,79,0.00,,OVC012,0.01,VWS V14.01,2013-03-12 09:53:00,
2013-03-12 05:58:00,32.1,26.3,29.88,West,267,7.2,13.0,79,0.00,,OVC012,0.01,VWS V14.01,2013-03-12 09:58:00,
2013-03-12 06:03:00,32.1,26.6,29.88,West,281,10.2,13.0,80,0.00,,OVC012,0.01,VWS V14.01,2013-03-12 10:03:00,
2013-03-12 06:08:00,32.1,26.6,29.88,West,265,11.2,14.0,80,0.00,,OVC012,0.01,VWS V14.01,2013-03-12 10:08:00,
2013-03-12 06:13:00,32.1,26.6,29.89,West,279,11.2,22.0,80,0.00,,OVC012,0.01,VWS V14.01,2013-03-12 10:13:00,
2013-03-12 06:18:00,32.1,26.6,29.89,West,269,12.2,22.0,80,0.00,,OVC012,0.01,VWS V14.01,2013-03-12 10:18:00,
2013-03-12 06:23:00,32.1,26.6,29.89,West,271,14.2,19.0,80,0.00,,OVC012,0.01,VWS V14.01,2013-03-12 10:23:00,
2013-03-12 06:28:00,32.1,26.6,29.89,West,280,7.2,19.0,80,0.00,,OVC012,0.01,VWS V14.01,2013-03-12 10:28:00,
2013-03-12 06:33:00,32.1,26.6,29.89,West,274,7.2,16.0,80,0.00,,OVC012,0.01,VWS V14.01,2013-03-12 10:33:00,
2013-03-12 06:38:00,32.1,26.9,29.89,West,276,12.2,16.0,81,0.00,,OVC012,0.01,VWS V14.01,2013-03-12 10:38:00,
2013-03-12 06:43:00,32.0,26.8,29.89,West,273,8.2,13.0,81,0.00,,OVC012,0.01,VWS V14.01,2013-03-12 10:43:00,
2013-03-12 06:48:00,31.9,26.7,29.90,West,280,9.2,15.0,81,0.00,,OVC012,0.01,VWS V14.01,2013-03-12 10:48:00,
2013-03-12 06:53:00,31.8,26.6,29.90,West,281,13.2,16.0,81,0.00,,OVC012,0.01,VWS V14.01,2013-03-12 10:53:00,
2013-03-12 06:58:00,31.7,26.5,29.90,West,269,9.2,16.0,81,0.00,,OVC012,0.01,VWS V14.01,2013-03-12 10:58:00,
2013-03-12 07:03:00,31.7,26.5,29.90,WNW,290,14.2,19.0,81,0.00,,OVC013,0.01,VWS V14.01,2013-03-12 11:03:00,
2013-03-12 07:08:00,31.7,26.5,29.90,WNW,294,15.2,19.0,81,0.00,,OVC013,0.01,VWS V14.01,2013-03-12 11:08:00,
2013-03-12 07:13:00,31.6,26.1,29.90,WNW,290,8.2,16.0,80,0.00,,OVC013,0.01,VWS V14.01,2013-03-12 11:13:00,
2013-03-12 07:18:00,31.6,26.1,29.91,West,263,12.2,16.0,80,0.00,,OVC013,0.01,VWS V14.01,2013-03-12 11:18:00,
2013-03-12 07:23:00,31.6,26.1,29.91,West,268,10.2,14.0,80,0.00,,OVC013,0.01,VWS V14.01,2013-03-12 11:23:00,
2013-03-12 07:28:00,31.6,26.1,29.91,West,264,11.2,17.0,80,0.00,,OVC013,0.01,VWS V14.01,2013-03-12 11:28:00,
2013-03-12 07:33:00,31.6,25.9,29.91,West,274,7.2,16.0,79,0.00,,OVC013,0.01,VWS V14.01,2013-03-12 11:33:00,
2013-03-12 07:38:00,31.6,25.9,29.91,West,277,9.2,16.0,79,0.00,,OVC013,0.01,VWS V14.01,2013-03-12 11:38:00,
2013-03-12 07:43:00,31.5,25.4,29.91,West,281,8.2,17.0,78,0.00,,OVC013,0.01,VWS V14.01,2013-03-12 11:43:00,
2013-03-12 07:48:00,31.5,25.1,29.91,West,266,13.2,17.0,77,0.00,,OVC013,0.01,VWS V14.01,2013-03-12 11:48:00,
2013-03-12 07:53:00,31.5,25.1,29.91,West,273,17.2,17.2,77,0.00,,OVC013,0.01,VWS V14.01,2013-03-12 11:53:00,
2013-03-12 07:58:00,31.4,25.0,29.92,West,267,9.2,16.0,77,0.00,,OVC013,0.01,VWS V14.01,2013-03-12 11:58:00,
2013-03-12 08:03:00,31.3,24.9,29.92,West,269,11.2,17.0,77,0.00,,OVC016,0.01,VWS V14.01,2013-03-12 12:03:00,
2013-03-12 08:08:00,31.3,24.9,29.92,West,273,11.2,19.0,77,0.00,,OVC016,0.01,VWS V14.01,2013-03-12 12:08:00,
2013-03-12 08:14:00,31.3,24.9,29.93,West,267,9.2,16.0,77,0.00,,OVC016,0.01,VWS V14.01,2013-03-12 12:14:00,
2013-03-12 08:19:00,31.2,24.8,29.93,WSW,246,18.2,18.2,77,0.00,,OVC016,0.01,VWS V14.01,2013-03-12 12:19:00,
2013-03-12 08:24:00,31.2,24.8,29.93,West,281,13.2,16.0,77,0.00,,OVC016,0.01,VWS V14.01,2013-03-12 12:24:00,
2013-03-12 08:29:00,31.2,24.8,29.93,West,279,11.2,16.0,77,0.00,,OVC016,0.01,VWS V14.01,2013-03-12 12:29:00,
2013-03-12 08:34:00,31.2,24.8,29.93,WSW,256,17.2,18.0,77,0.00,,OVC016,0.01,VWS V14.01,2013-03-12 12:34:00,
2013-03-12 08:39:00,31.2,24.8,29.93,West,261,9.2,18.0,77,0.00,,OVC016,0.01,VWS V14.01,2013-03-12 12:39:00,
2013-03-12 08:44:00,31.2,24.8,29.94,West,263,13.2,14.0,77,0.00,,OVC016,0.01,VWS V14.01,2013-03-12 12:44:00,
2013-03-12 08:49:00,31.2,25.1,29.94,West,277,10.2,14.0,78,0.00,,OVC016,0.01,VWS V14.01,2013-03-12 12:49:00,
2013-03-12 08:54:00,31.2,25.1,29.94,West,276,7.2,12.0,78,0.00,,OVC016,0.01,VWS V14.01,2013-03-12 12:54:00,
2013-03-12 08:59:00,31.1,25.0,29.94,West,277,6.2,13.0,78,0.00,,OVC016,0.01,VWS V14.01,2013-03-12 12:59:00,
2013-03-12 09:04:00,31.0,25.0,29.94,West,261,11.2,12.0,78,0.00,,OVC016,0.01,VWS V14.01,2013-03-12 13:04:00,
2013-03-12 09:09:00,30.9,24.9,29.94,West,276,11.2,14.0,78,0.00,,OVC016,0.01,VWS V14.01,2013-03-12 13:09:00,
2013-03-12 09:14:00,30.9,25.2,29.95,West,275,6.2,11.0,79,0.00,,OVC016,0.01,VWS V14.01,2013-03-12 13:14:00,
2013-03-12 09:19:00,30.9,25.2,29.95,West,279,7.2,11.0,79,0.00,,OVC016,0.01,VWS V14.01,2013-03-12 13:19:00,
2013-03-12 09:24:00,30.9,25.2,29.95,West,272,10.2,12.0,79,0.00,,OVC016,0.01,VWS V14.01,2013-03-12 13:24:00,
2013-03-12 09:29:00,30.9,25.2,29.95,West,273,11.2,13.0,79,0.00,,OVC016,0.01,VWS V14.01,2013-03-12 13:29:00,
2013-03-12 09:34:00,30.9,25.2,29.95,West,279,9.2,12.0,79,0.00,,OVC016,0.01,VWS V14.01,2013-03-12 13:34:00,
2013-03-12 09:39:00,30.9,25.2,29.95,West,281,11.2,14.0,79,0.00,,OVC016,0.01,VWS V14.01,2013-03-12 13:39:00,
2013-03-12 09:44:00,30.9,25.2,29.95,West,269,11.2,12.0,79,0.00,,OVC016,0.01,VWS V14.01,2013-03-12 13:44:00,
2013-03-12 09:49:00,30.9,24.9,29.95,WSW,257,13.2,13.2,78,0.00,,OVC016,0.01,VWS V14.01,2013-03-12 13:49:00,
2013-03-12 09:54:00,30.9,24.9,29.96,West,277,8.2,12.0,78,0.00,,OVC016,0.01,VWS V14.01,2013-03-12 13:54:00,
2013-03-12 09:59:00,30.9,24.9,29.95,West,277,9.2,16.0,78,0.00,,OVC016,0.01,VWS V14.01,2013-03-12 13:59:00,
2013-03-12 10:04:00,30.9,24.9,29.95,West,271,7.2,11.0,78,0.00,,,0.01,VWS V14.01,2013-03-12 14:04:00,
2013-03-12 10:09:00,31.0,25.0,29.96,West,269,12.2,13.0,78,0.00,,,0.01,VWS V14.01,2013-03-12 14:09:00,
2013-03-12 10:14:00,31.0,24.6,29.96,West,259,12.2,12.2,77,0.00,,,0.01,VWS V14.01,2013-03-12 14:14:00,
2013-03-12 10:19:00,31.1,24.8,29.95,WSW,258,10.2,12.0,77,0.00,,,0.01,VWS V14.01,2013-03-12 14:19:00,
2013-03-12 10:24:00,31.1,25.0,29.95,West,264,7.2,13.0,78,0.00,,,0.01,VWS V14.01,2013-03-12 14:24:00,
2013-03-12 10:29:00,31.1,25.0,29.95,West,267,8.2,13.0,78,0.00,,,0.01,VWS V14.01,2013-03-12 14:29:00,
2013-03-12 10:34:00,31.0,25.0,29.95,West,267,7.2,8.0,78,0.00,,,0.01,VWS V14.01,2013-03-12 14:34:00,
2013-03-12 10:39:00,31.0,25.3,29.95,West,269,5.2,12.0,79,0.00,,,0.01,VWS V14.01,2013-03-12 14:39:00,
2013-03-12 10:44:00,31.0,25.3,29.95,WSW,238,13.2,14.0,79,0.00,,,0.01,VWS V14.01,2013-03-12 14:44:00,
2013-03-12 10:49:00,30.9,24.9,29.95,WSW,248,10.2,14.0,78,0.00,,,0.01,VWS V14.01,2013-03-12 14:49:00,
2013-03-12 10:54:00,31.0,24.6,29.95,West,269,9.2,14.0,77,0.00,,,0.01,VWS V14.01,2013-03-12 14:54:00,
2013-03-12 10:59:00,31.0,24.3,29.95,WNW,282,9.2,17.0,76,0.00,,,0.01,VWS V14.01,2013-03-12 14:59:00,
2013-03-12 11:04:00,31.1,24.4,29.96,WSW,249,13.2,16.0,76,0.00,,OVC024,0.01,VWS V14.01,2013-03-12 15:04:00,
2013-03-12 11:09:00,31.2,24.5,29.97,West,259,10.2,16.0,76,0.00,,OVC024,0.01,VWS V14.01,2013-03-12 15:09:00,
2013-03-12 11:14:00,31.2,24.5,29.97,West,265,10.2,14.0,76,0.00,,OVC024,0.01,VWS V14.01,2013-03-12 15:14:00,
2013-03-12 11:19:00,31.1,24.1,29.98,West,277,9.2,14.0,75,0.00,,OVC024,0.01,VWS V14.01,2013-03-12 15:19:00,
2013-03-12 11:24:00,31.0,23.7,29.97,West,269,12.2,17.0,74,0.00,,OVC024,0.01,VWS V14.01,2013-03-12 15:24:00,
2013-03-12 11:29:00,31.0,23.7,29.97,West,269,13.2,17.0,74,0.00,,OVC024,0.01,VWS V14.01,2013-03-12 15:29:00,
2013-03-12 11:34:00,31.0,23.4,29.97,WSW,258,16.2,16.2,73,0.00,,OVC024,0.01,VWS V14.01,2013-03-12 15:34:00,
2013-03-12 11:39:00,31.1,23.1,29.98,West,281,10.2,16.0,72,0.00,,OVC024,0.01,VWS V14.01,2013-03-12 15:39:00,
2013-03-12 11:44:00,31.1,23.1,29.99,West,261,15.2,17.0,72,0.00,,OVC024,0.01,VWS V14.01,2013-03-12 15:44:00,
2013-03-12 11:49:00,31.0,22.7,29.99,West,275,12.2,18.0,71,0.00,,OVC024,0.01,VWS V14.01,2013-03-12 15:49:00,
2013-03-12 11:54:00,31.0,23.0,29.99,WSW,256,18.2,18.2,72,0.00,,OVC024,0.01,VWS V14.01,2013-03-12 15:54:00,
2013-03-12 11:59:00,30.9,23.0,29.99,West,264,15.2,18.0,72,0.00,,OVC024,0.01,VWS V14.01,2013-03-12 15:59:00,
2013-03-12 12:04:00,30.9,23.0,29.99,WSW,242,13.2,17.0,72,0.00,,OVC024,0.01,VWS V14.01,2013-03-12 16:04:00,
2013-03-12 12:09:00,30.9,23.3,29.99,West,261,9.2,17.0,73,0.00,,OVC024,0.01,VWS V14.01,2013-03-12 16:09:00,
2013-03-12 12:14:00,30.9,23.3,29.99,WSW,258,12.2,14.0,73,0.00,,OVC024,0.01,VWS V14.01,2013-03-12 16:14:00,
2013-03-12 12:19:00,31.0,23.0,29.98,West,259,12.2,18.0,72,0.00,,OVC024,0.01,VWS V14.01,2013-03-12 16:19:00,
2013-03-12 12:24:00,31.0,22.7,29.98,West,260,15.2,17.0,71,0.00,,OVC024,0.01,VWS V14.01,2013-03-12 16:24:00,
2013-03-12 12:29:00,31.2,22.9,29.99,West,259,12.2,18.0,71,0.00,,OVC024,0.01,VWS V14.01,2013-03-12 16:29:00,
2013-03-12 12:34:00,31.6,23.3,29.99,West,262,7.2,15.0,71,0.00,,OVC024,0.01,VWS V14.01,2013-03-12 16:34:00,
2013-03-12 12:39:00,31.9,23.6,29.99,WSW,252,15.2,16.0,71,0.00,,OVC024,0.01,VWS V14.01,2013-03-12 16:39:00,
2013-03-12 12:44:00,32.0,24.0,29.99,West,274,9.2,17.0,72,0.00,,OVC024,0.01,VWS V14.01,2013-03-12 16:44:00,
2013-03-12 12:49:00,32.1,24.1,29.99,West,263,14.2,19.0,72,0.00,,OVC024,0.01,VWS V14.01,2013-03-12 16:49:00,
2013-03-12 12:54:00,32.2,24.5,30.00,WSW,247,12.2,15.0,73,0.00,,OVC024,0.01,VWS V14.01,2013-03-12 16:54:00,
2013-03-12 12:59:00,32.3,24.6,29.99,WSW,257,6.2,18.0,73,0.00,,OVC024,0.01,VWS V14.01,2013-03-12 16:59:00,
2013-03-12 13:04:00,32.5,24.5,29.99,WSW,256,13.2,16.0,72,0.00,,OVC021,0.01,VWS V14.01,2013-03-12 17:04:00,
2013-03-12 13:09:00,32.7,25.0,29.99,WSW,243,12.2,16.0,73,0.00,,OVC021,0.01,VWS V14.01,2013-03-12 17:09:00,
2013-03-12 13:15:00,32.8,25.1,29.99,WSW,258,14.2,16.0,73,0.00,,OVC021,0.01,VWS V14.01,2013-03-12 17:15:00,
2013-03-12 13:20:00,32.7,24.7,29.99,WSW,246,16.2,16.2,72,0.00,,OVC021,0.01,VWS V14.01,2013-03-12 17:20:00,
2013-03-12 13:25:00,32.9,25.2,29.98,West,276,11.2,14.0,73,0.00,,OVC021,0.01,VWS V14.01,2013-03-12 17:25:00,
2013-03-12 13:30:00,33.3,25.6,29.98,West,270,11.2,14.0,73,0.00,,OVC021,0.01,VWS V14.01,2013-03-12 17:30:00,
2013-03-12 13:35:00,33.4,25.4,29.98,West,275,12.2,16.0,72,0.00,,OVC021,0.01,VWS V14.01,2013-03-12 17:35:00,
2013-03-12 13:40:00,33.5,25.8,29.98,WSW,250,14.2,16.0,73,0.00,,OVC021,0.01,VWS V14.01,2013-03-12 17:40:00,
2013-03-12 13:45:00,33.6,25.5,29.98,WSW,251,13.2,20.0,72,0.00,,OVC021,0.01,VWS V14.01,2013-03-12 17:45:00,
2013-03-12 13:50:00,33.8,25.7,29.98,WSW,252,14.2,20.0,72,0.00,,OVC021,0.01,VWS V14.01,2013-03-12 17:50:00,
2013-03-12 13:55:00,34.0,25.6,29.98,West,275,8.2,18.0,71,0.00,,OVC021,0.01,VWS V14.01,2013-03-12 17:55:00,
2013-03-12 14:00:00,34.2,26.1,29.99,WSW,252,14.2,18.0,72,0.00,,OVC023,0.01,VWS V14.01,2013-03-12 18:00:00,
2013-03-12 14:05:00,34.5,26.1,29.98,WSW,255,11.2,14.0,71,0.00,,OVC023,0.01,VWS V14.01,2013-03-12 18:05:00,
2013-03-12 14:10:00,34.8,27.0,29.98,WSW,241,15.2,17.0,73,0.00,,OVC023,0.01,VWS V14.01,2013-03-12 18:10:00,
2013-03-12 14:15:00,35.0,26.6,29.99,WSW,254,11.2,18.0,71,0.00,,OVC023,0.01,VWS V14.01,2013-03-12 18:15:00,
2013-03-12 14:20:00,35.0,26.6,29.98,WSW,252,16.2,18.0,71,0.00,,OVC023,0.01,VWS V14.01,2013-03-12 18:20:00,
2013-03-12 14:25:00,35.0,26.2,29.98,West,261,15.2,17.0,70,0.00,,OVC023,0.01,VWS V14.01,2013-03-12 18:25:00,
2013-03-12 14:30:00,35.2,26.8,29.98,West,267,8.2,17.0,71,0.00,,OVC023,0.01,VWS V14.01,2013-03-12 18:30:00,
2013-03-12 14:35:00,35.2,26.4,29.97,WSW,241,11.2,19.0,70,0.00,,OVC023,0.01,VWS V14.01,2013-03-12 18:35:00,
2013-03-12 14:40:00,35.7,27.2,29.97,WSW,245,16.2,19.0,71,0.00,,OVC023,0.01,VWS V14.01,2013-03-12 18:40:00,
2013-03-12 14:45:00,36.5,28.0,29.97,WSW,253,15.2,17.0,71,0.00,,OVC023,0.01,VWS V14.01,2013-03-12 18:45:00,
2013-03-12 14:50:00,37.0,27.4,29.97,West,267,9.2,18.0,68,0.00,,OVC023,0.01,VWS V14.01,2013-03-12 18:50:00,
2013-03-12 14:55:00,37.4,28.2,29.96,West,268,8.2,18.0,69,0.00,,OVC023,0.01,VWS V14.01,2013-03-12 18:55:00,
2013-03-12 15:00:00,38.2,28.9,29.96,WSW,251,18.2,18.2,69,0.00,,OVC031,0.01,VWS V14.01,2013-03-12 19:00:00,
2013-03-12 15:05:00,38.7,29.1,29.96,WSW,252,13.2,19.0,68,0.00,,OVC031,0.01,VWS V14.01,2013-03-12 19:05:00,
2013-03-12 15:10:00,38.7,28.7,29.97,West,265,14.2,19.0,67,0.00,,OVC031,0.01,VWS V14.01,2013-03-12 19:10:00,
2013-03-12 15:15:00,38.1,27.0,29.97,West,275,14.2,16.0,64,0.00,,OVC031,0.01,VWS V14.01,2013-03-12 19:15:00,
2013-03-12 15:20:00,37.7,27.0,29.97,West,263,10.2,16.0,65,0.01,,OVC031,0.02,VWS V14.01,2013-03-12 19:20:00,
2013-03-12 15:25:00,37.5,26.5,29.97,West,259,14.2,20.0,64,0.01,,OVC031,0.02,VWS V14.01,2013-03-12 19:25:00,
2013-03-12 15:30:00,37.2,26.5,29.97,West,267,9.2,20.0,65,0.01,,OVC031,0.02,VWS V14.01,2013-03-12 19:30:00,
2013-03-12 15:35:00,37.1,26.1,29.96,West,268,6.2,16.0,64,0.01,,OVC031,0.02,VWS V14.01,2013-03-12 19:35:00,
2013-03-12 15:40:00,37.2,26.2,29.96,WSW,240,15.2,22.0,64,0.01,,OVC031,0.02,VWS V14.01,2013-03-12 19:40:00,
2013-03-12 15:45:00,37.5,26.8,29.96,West,273,11.2,16.0,65,0.01,,OVC031,0.02,VWS V14.01,2013-03-12 19:45:00,
2013-03-12 15:50:00,37.9,26.8,29.96,WSW,250,16.2,18.0,64,0.01,,OVC031,0.02,VWS V14.01,2013-03-12 19:50:00,
2013-03-12 15:55:00,37.9,26.5,29.96,West,273,12.2,19.0,63,0.01,,OVC031,0.02,VWS V14.01,2013-03-12 19:55:00,
2013-03-12 16:00:00,37.9,26.1,29.96,WSW,245,16.2,21.0,62,0.01,,OVC037,0.02,VWS V14.01,2013-03-12 20:00:00,
2013-03-12 16:05:00,37.8,26.4,29.95,West,262,13.2,18.0,63,0.01,,OVC037,0.02,VWS V14.01,2013-03-12 20:05:00,
2013-03-12 16:10:00,37.9,26.5,29.96,West,263,15.2,18.0,63,0.01,,OVC037,0.02,VWS V14.01,2013-03-12 20:10:00,
2013-03-12 16:15:00,37.8,25.6,29.96,WSW,251,15.2,17.0,61,0.01,,OVC037,0.02,VWS V14.01,2013-03-12 20:15:00,
2013-03-12 16:20:00,37.8,26.4,29.95,West,267,11.2,17.0,63,0.01,,OVC037,0.02,VWS V14.01,2013-03-12 20:20:00,
2013-03-12 16:26:00,37.8,26.4,29.96,West,270,13.2,17.0,63,0.00,,OVC037,0.02,VWS V14.01,2013-03-12 20:26:00,
2013-03-12 16:31:00,37.9,26.5,29.96,WSW,254,16.2,17.0,63,0.00,,OVC037,0.02,VWS V14.01,2013-03-12 20:31:00,
2013-03-12 16:36:00,37.9,26.5,29.96,WNW,284,13.2,20.0,63,0.00,,OVC037,0.02,VWS V14.01,2013-03-12 20:36:00,
2013-03-12 16:41:00,37.8,26.4,29.96,West,264,14.2,20.0,63,0.00,,OVC037,0.02,VWS V14.01,2013-03-12 20:41:00,
2013-03-12 16:46:00,37.7,25.9,29.96,WNW,284,8.2,20.0,62,0.00,,OVC037,0.02,VWS V14.01,2013-03-12 20:46:00,
2013-03-12 16:51:00,37.7,26.6,29.97,WNW,287,13.2,20.0,64,0.00,,OVC037,0.02,VWS V14.01,2013-03-12 20:51:00,
2013-03-12 16:56:00,37.6,25.8,29.97,West,277,11.2,20.0,62,0.00,,OVC037,0.02,VWS V14.01,2013-03-12 20:56:00,
2013-03-12 17:01:00,37.6,26.5,29.97,WNW,294,13.2,20.0,64,0.00,,BKN043,0.02,VWS V14.01,2013-03-12 21:01:00,
2013-03-12 17:06:00,37.7,25.9,29.97,WNW,292,20.2,26.0,62,0.00,,BKN043,0.02,VWS V14.01,2013-03-12 21:06:00,
2013-03-12 17:11:00,37.7,26.6,29.97,West,265,12.2,26.0,64,0.00,,BKN043,0.02,VWS V14.01,2013-03-12 21:11:00,
2013-03-12 17:16:00,37.9,26.8,29.97,WNW,287,10.2,20.0,64,0.00,,BKN043,0.02,VWS V14.01,2013-03-12 21:16:00,
2013-03-12 17:21:00,38.3,26.0,29.97,West,280,19.2,21.0,61,0.00,,BKN043,0.02,VWS V14.01,2013-03-12 21:21:00,
2013-03-12 17:27:00,37.9,24.5,29.97,WNW,296,14.2,26.0,58,0.00,,BKN043,0.02,VWS V14.01,2013-03-12 21:27:00,
2013-03-12 17:32:00,37.5,25.7,29.98,West,273,11.2,11.2,62,0.00,,BKN043,0.02,VWS V14.01,2013-03-12 21:32:00,
2013-03-12 17:37:00,37.3,25.5,29.98,West,269,16.2,19.0,62,0.00,,BKN043,0.02,VWS V14.01,2013-03-12 21:37:00,
2013-03-12 17:42:00,37.1,25.7,29.98,WNW,283,16.2,17.0,63,0.00,,BKN043,0.02,VWS V14.01,2013-03-12 21:42:00,
2013-03-12 17:47:00,37.0,25.6,29.98,West,281,10.2,22.0,63,0.00,,BKN043,0.02,VWS V14.01,2013-03-12 21:47:00,
2013-03-12 17:52:00,37.2,25.8,29.98,West,270,8.2,12.0,63,0.00,,BKN043,0.02,VWS V14.01,2013-03-12 21:52:00,
2013-03-12 17:57:00,37.6,26.2,29.98,West,261,12.2,17.0,63,0.00,,BKN043,0.02,VWS V14.01,2013-03-12 21:57:00,
2013-03-12 18:02:00,37.6,26.5,29.98,West,263,12.2,13.0,64,0.00,,BKN047,0.02,VWS V14.01,2013-03-12 22:02:00,
2013-03-12 18:07:00,37.6,26.9,29.98,WNW,290,15.2,17.0,65,0.00,,BKN047,0.02,VWS V14.01,2013-03-12 22:07:00,
2013-03-12 18:12:00,37.6,26.2,29.98,West,276,10.2,17.0,63,0.00,,BKN047,0.02,VWS V14.01,2013-03-12 22:12:00,
2013-03-12 18:17:00,37.4,26.4,29.98,West,259,15.2,17.0,64,0.00,,BKN047,0.02,VWS V14.01,2013-03-12 22:17:00,
2013-03-12 18:22:00,37.0,27.4,29.98,West,260,16.2,17.0,68,0.00,,BKN047,0.02,VWS V14.01,2013-03-12 22:22:00,
2013-03-12 18:27:00,36.7,25.7,29.98,West,279,9.2,20.0,64,0.00,,BKN047,0.02,VWS V14.01,2013-03-12 22:27:00,
2013-03-12 18:32:00,36.5,25.5,29.99,West,270,9.2,14.0,64,0.00,,BKN047,0.02,VWS V14.01,2013-03-12 22:32:00,
2013-03-12 18:37:00,36.3,26.0,29.99,West,277,12.2,14.0,66,0.00,,BKN047,0.02,VWS V14.01,2013-03-12 22:37:00,
2013-03-12 18:42:00,36.3,26.0,29.99,West,275,9.2,14.0,66,0.00,,BKN047,0.02,VWS V14.01,2013-03-12 22:42:00,
2013-03-12 18:47:00,36.4,26.5,29.99,West,281,14.2,14.2,67,0.00,,BKN047,0.02,VWS V14.01,2013-03-12 22:47:00,
2013-03-12 18:52:00,36.4,26.5,29.99,WSW,252,11.2,13.0,67,0.00,,BKN047,0.02,VWS V14.01,2013-03-12 22:52:00,
2013-03-12 18:57:00,36.5,26.6,29.98,West,259,12.2,13.0,67,0.00,,BKN047,0.02,VWS V14.01,2013-03-12 22:57:00,
2013-03-12 19:02:00,36.7,26.1,29.98,WSW,257,10.2,14.0,65,0.00,,SCT055,0.02,VWS V14.01,2013-03-12 23:02:00,
2013-03-12 19:07:00,36.7,26.4,29.98,WSW,248,9.2,14.0,66,0.00,,SCT055,0.02,VWS V14.01,2013-03-12 23:07:00,
2013-03-12 19:12:00,36.5,25.9,29.98,WSW,257,10.2,11.0,65,0.00,,SCT055,0.02,VWS V14.01,2013-03-12 23:12:00,
2013-03-12 19:17:00,36.3,25.7,29.98,WSW,256,9.2,13.0,65,0.00,,SCT055,0.02,VWS V14.01,2013-03-12 23:17:00,
2013-03-12 19:22:00,36.1,25.9,29.98,West,259,7.2,7.2,66,0.00,,SCT055,0.02,VWS V14.01,2013-03-12 23:22:00,
2013-03-12 19:27:00,35.7,25.8,29.98,West,260,7.2,8.0,67,0.00,,SCT055,0.02,VWS V14.01,2013-03-12 23:27:00,
2013-03-12 19:32:00,35.4,25.5,29.98,WSW,252,13.2,13.2,67,0.00,,SCT055,0.02,VWS V14.01,2013-03-12 23:32:00,
2013-03-12 19:37:00,35.1,25.6,29.98,WSW,252,6.2,12.0,68,0.00,,SCT055,0.02,VWS V14.01,2013-03-12 23:37:00,
2013-03-12 19:42:00,35.0,25.5,29.98,WSW,252,5.2,7.0,68,0.00,,SCT055,0.02,VWS V14.01,2013-03-12 23:42:00,
2013-03-12 19:48:00,34.9,25.8,29.98,WSW,252,4.2,7.0,69,0.00,,SCT055,0.02,VWS V14.01,2013-03-12 23:48:00,
2013-03-12 19:53:00,34.7,25.6,29.98,WSW,252,3.2,3.2,69,0.00,,SCT055,0.02,VWS V14.01,2013-03-12 23:53:00,
2013-03-12 19:58:00,34.5,25.7,29.98,WSW,252,3.2,4.0,70,0.00,,SCT055,0.02,VWS V14.01,2013-03-12 23:58:00,
2013-03-12 20:03:00,34.4,26.0,29.98,WSW,252,5.2,5.2,71,0.00,,,0.02,VWS V14.01,2013-03-13 00:03:00,
2013-03-12 20:08:00,34.3,26.2,29.99,WSW,252,4.2,4.2,72,0.00,,,0.02,VWS V14.01,2013-03-13 00:08:00,
2013-03-12 20:13:00,34.3,26.6,29.99,WSW,252,6.2,8.0,73,0.00,,,0.02,VWS V14.01,2013-03-13 00:13:00,
2013-03-12 20:18:00,34.2,27.8,30.00,WNW,286,12.2,20.0,77,0.00,,,0.02,VWS V14.01,2013-03-13 00:18:00,
2013-03-12 20:23:00,33.7,27.9,30.00,West,269,8.2,12.0,79,0.00,,,0.02,VWS V14.01,2013-03-13 00:23:00,
2013-03-12 20:28:00,33.2,28.0,30.00,WNW,283,10.2,12.0,81,0.00,,,0.02,VWS V14.01,2013-03-13 00:28:00,
2013-03-12 20:33:00,33.1,28.2,30.00,West,276,10.2,10.2,82,0.00,,,0.02,VWS V14.01,2013-03-13 00:33:00,
2013-03-12 20:38:00,32.9,28.0,30.00,West,266,5.2,9.0,82,0.00,,,0.02,VWS V14.01,2013-03-13 00:38:00,
2013-03-12 20:43:00,32.8,28.2,30.00,WSW,253,7.2,7.2,83,0.00,,,0.02,VWS V14.01,2013-03-13 00:43:00,
2013-03-12 20:48:00,32.8,28.2,30.01,WSW,254,6.2,9.0,83,0.00,,,0.02,VWS V14.01,2013-03-13 00:48:00,
2013-03-12 20:53:00,32.8,28.5,30.00,West,266,9.2,10.0,84,0.00,,,0.02,VWS V14.01,2013-03-13 00:53:00,
2013-03-12 20:58:00,32.8,28.5,30.01,West,277,6.2,19.0,84,0.00,,,0.02,VWS V14.01,2013-03-13 00:58:00,
2013-03-12 21:03:00,32.9,28.6,30.01,West,271,4.2,18.0,84,0.00,,,0.02,VWS V14.01,2013-03-13 01:03:00,
2013-03-12 21:08:00,32.9,28.6,30.00,West,276,8.2,18.0,84,0.00,,,0.02,VWS V14.01,2013-03-13 01:08:00,
2013-03-12 21:13:00,32.9,28.6,30.01,West,272,5.2,11.0,84,0.00,,,0.02,VWS V14.01,2013-03-13 01:13:00,
2013-03-12 21:18:00,32.9,28.6,30.01,West,279,7.2,13.0,84,0.00,,,0.02,VWS V14.01,2013-03-13 01:18:00,
2013-03-12 21:23:00,32.9,28.6,30.01,West,268,11.2,12.0,84,0.00,,,0.02,VWS V14.01,2013-03-13 01:23:00,
2013-03-12 21:28:00,32.9,28.3,30.01,West,267,8.2,13.0,83,0.00,,,0.02,VWS V14.01,2013-03-13 01:28:00,
2013-03-12 21:33:00,33.0,28.4,30.01,West,264,9.2,9.2,83,0.00,,,0.02,VWS V14.01,2013-03-13 01:33:00,
2013-03-12 21:38:00,33.0,28.4,30.01,West,276,13.2,15.0,83,0.00,,,0.02,VWS V14.01,2013-03-13 01:38:00,
2013-03-12 21:43:00,33.0,28.1,30.01,West,277,12.2,13.0,82,0.00,,,0.02,VWS V14.01,2013-03-13 01:43:00,
2013-03-12 21:48:00,33.0,28.1,30.01,West,275,5.2,13.0,82,0.00,,,0.02,VWS V14.01,2013-03-13 01:48:00,
2013-03-12 21:53:00,32.9,28.0,30.01,West,276,6.2,15.0,82,0.00,,,0.02,VWS V14.01,2013-03-13 01:53:00,
2013-03-12 21:58:00,32.9,28.0,30.01,West,259,10.2,15.0,82,0.00,,,0.02,VWS V14.01,2013-03-13 01:58:00,
2013-03-12 22:03:00,32.8,27.9,30.01,West,267,7.2,10.0,82,0.00,,BKN070,0.02,VWS V14.01,2013-03-13 02:03:00,
2013-03-12 22:08:00,32.6,27.7,30.01,West,273,12.2,12.2,82,0.00,,BKN070,0.02,VWS V14.01,2013-03-13 02:08:00,
2013-03-12 22:13:00,32.5,27.3,30.01,West,263,10.2,10.2,81,0.00,,BKN070,0.02,VWS V14.01,2013-03-13 02:13:00,
2013-03-12 22:18:00,32.4,27.2,30.01,West,273,10.2,13.0,81,0.00,,BKN070,0.02,VWS V14.01,2013-03-13 02:18:00,
2013-03-12 22:23:00,32.3,27.1,30.01,West,263,8.2,12.0,81,0.00,,BKN070,0.02,VWS V14.01,2013-03-13 02:23:00,
2013-03-12 22:28:00,32.2,27.0,30.01,West,262,11.2,12.0,81,0.00,,BKN070,0.02,VWS V14.01,2013-03-13 02:28:00,
2013-03-12 22:33:00,32.1,26.6,30.01,West,265,9.2,10.0,80,0.00,,BKN070,0.02,VWS V14.01,2013-03-13 02:33:00,
2013-03-12 22:38:00,32.0,26.5,30.01,West,266,10.2,10.2,80,0.00,,BKN070,0.02,VWS V14.01,2013-03-13 02:38:00,
2013-03-12 22:43:00,32.0,26.5,30.01,West,262,10.2,10.2,80,0.00,,BKN070,0.02,VWS V14.01,2013-03-13 02:43:00,
2013-03-12 22:48:00,31.8,26.4,30.01,West,261,7.2,11.0,80,0.00,,BKN070,0.02,VWS V14.01,2013-03-13 02:48:00,
2013-03-12 22:53:00,31.7,25.9,30.01,West,269,8.2,11.0,79,0.00,,BKN070,0.02,VWS V14.01,2013-03-13 02:53:00,
2013-03-12 22:58:00,31.7,25.9,30.01,West,271,7.2,11.0,79,0.00,,BKN070,0.02,VWS V14.01,2013-03-13 02:58:00,
2013-03-12 23:04:00,31.6,25.9,30.01,West,269,5.2,6.0,79,0.00,,BKN085,0.02,VWS V14.01,2013-03-13 03:04:00,
2013-03-12 23:09:00,31.7,25.9,30.01,West,261,7.2,9.0,79,0.00,,BKN085,0.02,VWS V14.01,2013-03-13 03:09:00,
2013-03-12 23:14:00,31.8,26.0,30.01,West,260,8.2,15.0,79,0.00,,BKN085,0.02,VWS V14.01,2013-03-13 03:14:00,
2013-03-12 23:19:00,32.0,26.5,30.01,West,259,13.2,15.0,80,0.00,,BKN085,0.02,VWS V14.01,2013-03-13 03:19:00,
2013-03-12 23:24:00,32.1,26.3,30.01,West,280,11.2,14.0,79,0.00,,BKN085,0.02,VWS V14.01,2013-03-13 03:24:00,
2013-03-12 23:29:00,32.1,26.3,30.01,West,265,6.2,14.0,79,0.00,,BKN085,0.02,VWS V14.01,2013-03-13 03:29:00,
2013-03-12 23:34:00,32.2,26.4,30.01,West,276,10.2,11.0,79,0.00,,BKN085,0.02,VWS V14.01,2013-03-13 03:34:00,
2013-03-12 23:39:00,32.3,26.5,30.01,West,271,8.2,12.0,79,0.00,,BKN085,0.02,VWS V14.01,2013-03-13 03:39:00,
2013-03-12 23:44:00,32.3,26.5,30.01,WNW,284,6.2,11.0,79,0.00,,BKN085,0.02,VWS V14.01,2013-03-13 03:44:00,
2013-03-12 23:49:00,32.4,26.6,30.01,West,275,11.2,12.0,79,0.00,,BKN085,0.02,VWS V14.01,2013-03-13 03:49:00,
2013-03-12 23:54:00,32.3,26.2,30.00,West,271,6.2,10.0,78,0.00,,BKN085,0.02,VWS V14.01,2013-03-13 03:54:00,
2013-03-12 23:59:00,32.3,26.5,30.00,West,268,7.2,10.0,79,0.00,,BKN085,0.02,VWS V14.01,2013-03-13 03:59:00,